Volver al catálogo

CZ-4B DEB

ActivoSSO
NORAD 36289·DEBRIS·🇨🇳 China

Lanzado Oct 25, 2008 desde Taiyuan Satellite Launch Center

Loading…

Próximos Pases (próximas 24 horas)

TLE

ActualizadoSource: Space-Track

Época: Sep 11, 2026, 19:49 UTC

1 36289U 08053K   26254.82633694  .00001597  00000-0  11585-3 0  9999
2 36289  97.8281 284.1839 0011554 125.7996 234.4305 15.05363693961104

Sigue CZ-4B DEB en tiempo real con AllMySat

Download on the App Store